,,PA_Meas_PMT16A,,PR_Meas_QMR101_102,,RH_Meas_QMH101,,SR_Meas_QMS101,,TA_Meas_QMH101,,GenWind,,GenWind,
time,status,PA,status,PR,status,RH,status,SR,status,TA,status,DirAvg,status,SpdAvg,
2009-11-06, 00:00:05,VALID,915.974,VALID,0,VALID,94.9268,VALID,0,VALID,20.2458,VALID,161,VALID,0.503906,
2009-11-06, 00:01:05,VALID,915.972,VALID,0,VALID,94.8734,VALID,0.107441,VALID,20.2458,VALID,161,VALID,0.600781,
2009-11-06, 00:02:05,VALID,915.933,VALID,0,VALID,94.9268,VALID,0,VALID,20.2263,VALID,161,VALID,0.594922,
2009-11-06, 00:03:05,VALID,915.921,VALID,0,VALID,95.0716,VALID,0,VALID,20.2263,VALID,161,VALID,0.565625,
2009-11-06, 00:04:05,VALID,915.899,VALID,0,VALID,95.3079,VALID,0,VALID,20.2068,VALID,161,VALID,0.682813,
2009-11-06, 00:05:05,VALID,915.895,VALID,0,VALID,95.4452,VALID,0,VALID,20.1873,VALID,161,VALID,0.521094,
2009-11-06, 00:06:05,VALID,915.865,VALID,0,VALID,95.5976,VALID,0,VALID,20.1483,VALID,161,VALID,0.466797,
2009-11-06, 00:07:05,VALID,915.841,VALID,0,VALID,95.7349,VALID,0,VALID,20.1288,VALID,161,VALID,0.573438,
2009-11-06, 00:08:05,VALID,915.867,VALID,0,VALID,95.8492,VALID,0.107441,VALID,20.0882,VALID,161,VALID,0.645703,
2009-11-06, 00:09:05,VALID,915.832,VALID,0,VALID,95.9178,VALID,0,VALID,20.0913,VALID,161,VALID,0.428516,
2009-11-06, 00:10:05,VALID,915.837,VALID,0,VALID,96.0093,VALID,0,VALID,20.0718,VALID,161,VALID,0.371484,
2009-11-06, 00:11:05,VALID,915.812,VALID,0,VALID,96.0322,VALID,0,VALID,20.0328,VALID,161,VALID,0.376563,
2009-11-06, 00:12:05,VALID,915.817,VALID,0,VALID,96.0855,VALID,0,VALID,20.0133,VALID,161,VALID,0.485156,
2009-11-06, 00:13:05,VALID,915.772,VALID,0,VALID,96.1694,VALID,0,VALID,20.0133,VALID,161,VALID,0.449219,
2009-11-06, 00:14:05,VALID,915.755,VALID,0,VALID,96.1999,VALID,0,VALID,20.0133,VALID,161,VALID,0.367188,
2009-11-06, 00:15:05,VALID,915.763,VALID,0,VALID,96.1846,VALID,0,VALID,19.9743,VALID,161,VALID,0.358203,
2009-11-06, 00:16:05,VALID,915.706,VALID,0,VALID,96.2304,VALID,0,VALID,19.9338,VALID,161,VALID,0.433594,
2009-11-06, 00:17:05,VALID,915.711,VALID,0,VALID,96.2609,VALID,0,VALID,19.9548,VALID,161,VALID,0.463281,
2009-11-06, 00:18:05,VALID,915.696,VALID,0,VALID,96.2304,VALID,0,VALID,19.9353,VALID,161,VALID,0.560547,
2009-11-06, 00:19:05,VALID,915.717,VALID,0,VALID,96.2533,VALID,0,VALID,19.9353,VALID,161,VALID,0.692578,
2009-11-06, 00:20:05,VALID,915.715,VALID,0,VALID,96.2075,VALID,0,VALID,19.9158,VALID,161,VALID,0.721875,
2009-11-06, 00:21:05,VALID,915.694,VALID,0,VALID,96.1389,VALID,0,VALID,19.9353,VALID,161,VALID,0.542578,
2009-11-06, 00:22:05,VALID,915.707,VALID,0,VALID,96.116,VALID,0,VALID,19.9158,VALID,161,VALID,0.471875,
2009-11-06, 00:23:05,VALID,915.657,VALID,0,VALID,96.0398,VALID,0,VALID,19.8963,VALID,161,VALID,0.60625,
2009-11-06, 00:24:05,VALID,915.689,VALID,0,VALID,96.0322,VALID,0,VALID,19.9158,VALID,161,VALID,0.345703,
2009-11-06, 00:25:05,VALID,915.698,VALID,0,VALID,96.0017,VALID,0,VALID,19.9143,VALID,161,VALID,0.61875,
2009-11-06, 00:26:05,VALID,915.662,VALID,0,VALID,96.0627,VALID,0,VALID,19.9548,VALID,161,VALID,0.395703,
2009-11-06, 00:27:05,VALID,915.669,VALID,0,VALID,96.0627,VALID,0,VALID,19.9533,VALID,161,VALID,0.577344,
2009-11-06, 00:28:05,VALID,915.663,VALID,0,VALID,96.0932,VALID,0,VALID,19.9728,VALID,161,VALID,0.594922,
2009-11-06, 00:29:05,VALID,915.661,VALID,0,VALID,96.0855,VALID,0,VALID,19.9938,VALID,161,VALID,0.364453,
2009-11-06, 00:30:05,VALID,915.648,VALID,0,VALID,96.1236,VALID,0,VALID,20.0133,VALID,161,VALID,0.0875,
2009-11-06, 00:31:05,VALID,915.652,VALID,0,VALID,96.3142,VALID,0,VALID,20.0523,VALID,161,VALID,0,
2009-11-06, 00:32:05,VALID,915.633,VALID,0,VALID,96.3142,VALID,0,VALID,20.0508,VALID,161,VALID,0,
2009-11-06, 00:33:05,VALID,915.636,VALID,0,VALID,96.2761,VALID,0,VALID,20.0313,VALID,161,VALID,0.336328,
2009-11-06, 00:34:05,VALID,915.621,VALID,0,VALID,96.2151,VALID,0,VALID,20.0118,VALID,161,VALID,0.155078,
2009-11-06, 00:35:05,VALID,915.638,VALID,0,VALID,96.177,VALID,0,VALID,20.0118,VALID,161,VALID,0.254297,
2009-11-06, 00:36:05,VALID,915.637,VALID,0,VALID,96.1923,VALID,0.107441,VALID,20.0133,VALID,161,VALID,0.514844,
2009-11-06, 00:37:05,VALID,915.633,VALID,0,VALID,96.1923,VALID,0,VALID,20.0133,VALID,161,VALID,0.557422,
2009-11-06, 00:38:05,VALID,915.638,VALID,0,VALID,96.2533,VALID,0,VALID,19.9923,VALID,161,VALID,0.304297,
2009-11-06, 00:39:05,VALID,915.662,VALID,0,VALID,96.299,VALID,0,VALID,20.0328,VALID,161,VALID,0.0449219,
2009-11-06, 00:40:05,VALID,915.623,VALID,0,VALID,96.2228,VALID,0,VALID,20.0508,VALID,161,VALID,0,
2009-11-06, 00:41:05,VALID,915.639,VALID,0,VALID,96.177,VALID,0,VALID,20.0313,VALID,161,VALID,0,
2009-11-06, 00:42:05,VALID,915.644,VALID,0,VALID,96.1389,VALID,0,VALID,20.0118,VALID,161,VALID,0,
2009-11-06, 00:43:05,VALID,915.655,VALID,0,VALID,96.1618,VALID,0,VALID,20.0313,VALID,161,VALID,0,
2009-11-06, 00:44:05,VALID,915.683,VALID,0,VALID,96.1846,VALID,0,VALID,20.0313,VALID,161,VALID,0,
2009-11-06, 00:45:05,VALID,915.684,VALID,0,VALID,96.1923,VALID,0,VALID,20.0508,VALID,161,VALID,0,
2009-11-06, 00:46:05,VALID,915.695,VALID,0,VALID,96.116,VALID,0,VALID,20.0508,VALID,161,VALID,0,
2009-11-06, 00:47:05,VALID,915.697,VALID,0,VALID,96.1389,VALID,0,VALID,20.0508,VALID,161,VALID,0,
2009-11-06, 00:48:05,VALID,915.691,VALID,0,VALID,96.116,VALID,0,VALID,20.0298,VALID,161,VALID,0,
2009-11-06, 00:49:05,VALID,915.696,VALID,0,VALID,95.9178,VALID,0.107441,VALID,20.0118,VALID,161,VALID,0,
2009-11-06, 00:50:05,VALID,915.684,VALID,0,VALID,95.8035,VALID,0,VALID,19.9923,VALID,161,VALID,0,
2009-11-06, 00:51:05,VALID,915.715,VALID,0,VALID,95.8035,VALID,0,VALID,19.9533,VALID,161,VALID,0,
2009-11-06, 00:52:05,VALID,915.687,VALID,0,VALID,95.9178,VALID,0,VALID,19.9728,VALID,161,VALID,0,
2009-11-06, 00:53:05,VALID,915.686,VALID,0,VALID,96.0627,VALID,0,VALID,19.9923,VALID,161,VALID,0,
2009-11-06, 00:54:05,VALID,915.681,VALID,0,VALID,96.1313,VALID,0.107441,VALID,20.0118,VALID,161,VALID,0,
2009-11-06, 00:55:05,VALID,915.661,VALID,0,VALID,96.0322,VALID,0,VALID,19.9923,VALID,161,VALID,0,
2009-11-06, 00:56:05,VALID,915.676,VALID,0,VALID,95.9636,VALID,0,VALID,19.9533,VALID,161,VALID,0,
2009-11-06, 00:57:05,VALID,915.682,VALID,0,VALID,95.9864,VALID,0,VALID,19.9533,VALID,161,VALID,0,
2009-11-06, 00:58:05,VALID,915.684,VALID,0,VALID,95.8263,VALID,0,VALID,19.9143,VALID,161,VALID,0,
2009-11-06, 00:59:05,VALID,915.633,VALID,0,VALID,95.7958,VALID,0.107441,VALID,19.8948,VALID,161,VALID,0,
2009-11-06, 01:00:05,VALID,915.639,VALID,0,VALID,95.7882,VALID,0.107441,VALID,19.8558,VALID,161,VALID,0,
2009-11-06, 01:01:05,VALID,915.639,VALID,0,VALID,95.9712,VALID,0,VALID,19.8753,VALID,161,VALID,0,
2009-11-06, 01:02:05,VALID,915.641,VALID,0,VALID,95.834,VALID,0,VALID,19.8558,VALID,161,VALID,0,
2009-11-06, 01:03:05,VALID,915.606,VALID,0,VALID,95.8492,VALID,0,VALID,19.7973,VALID,161,VALID,0.183594,
2009-11-06, 01:04:05,VALID,915.607,VALID,0,VALID,95.7577,VALID,0,VALID,19.7778,VALID,161,VALID,0.225,
2009-11-06, 01:05:05,VALID,915.586,VALID,0,VALID,95.9331,VALID,0,VALID,19.7388,VALID,161,VALID,0.25625,
2009-11-06, 01:06:05,VALID,915.589,VALID,0,VALID,96.177,VALID,0,VALID,19.7598,VALID,161,VALID,0.114453,
2009-11-06, 01:07:05,VALID,915.582,VALID,0,VALID,96.177,VALID,0,VALID,19.7598,VALID,161,VALID,0,
2009-11-06, 01:08:05,VALID,915.559,VALID,0,VALID,96.1389,VALID,0,VALID,19.7193,VALID,161,VALID,0,
2009-11-06, 01:09:05,VALID,915.573,VALID,0,VALID,96.1999,VALID,0,VALID,19.7193,VALID,161,VALID,0.376953,
2009-11-06, 01:10:05,VALID,915.56,VALID,0,VALID,96.3829,VALID,0,VALID,19.7388,VALID,161,VALID,0.342969,
2009-11-06, 01:11:05,VALID,915.523,VALID,0,VALID,96.3142,VALID,0,VALID,19.7388,VALID,161,VALID,0.244922,
2009-11-06, 01:12:05,VALID,915.534,VALID,0,VALID,96.3371,VALID,0,VALID,19.7598,VALID,161,VALID,0.05625,
2009-11-06, 01:13:05,VALID,915.526,VALID,0,VALID,96.3905,VALID,0,VALID,19.7388,VALID,161,VALID,0.33125,
2009-11-06, 01:14:05,VALID,915.505,VALID,0,VALID,96.36,VALID,0,VALID,19.7583,VALID,161,VALID,0.397266,
2009-11-06, 01:15:05,VALID,915.48,VALID,0,VALID,96.299,VALID,0,VALID,19.7793,VALID,161,VALID,0.198437,
2009-11-06, 01:16:05,VALID,915.469,VALID,0,VALID,96.2761,VALID,0,VALID,19.7793,VALID,161,VALID,0,
2009-11-06, 01:17:05,VALID,915.434,VALID,0,VALID,96.3066,VALID,0,VALID,19.7778,VALID,161,VALID,0,
2009-11-06, 01:18:05,VALID,915.461,VALID,0,VALID,96.3524,VALID,0,VALID,19.7973,VALID,161,VALID,0,
2009-11-06, 01:19:04,VALID,915.449,VALID,0,VALID,96.421,VALID,0,VALID,19.8168,VALID,161,VALID,0,
2009-11-06, 01:20:04,VALID,915.456,VALID,0,VALID,96.2609,VALID,0,VALID,19.8168,VALID,161,VALID,0,
2009-11-06, 01:21:04,VALID,915.438,VALID,0,VALID,96.1618,VALID,0,VALID,19.7973,VALID,161,VALID,0,
2009-11-06, 01:22:04,VALID,915.449,VALID,0,VALID,96.2075,VALID,0,VALID,19.7973,VALID,161,VALID,0,
2009-11-06, 01:23:04,VALID,915.408,VALID,0,VALID,96.2685,VALID,0,VALID,19.8363,VALID,161,VALID,0,
2009-11-06, 01:24:04,VALID,915.408,VALID,0,VALID,96.2228,VALID,0,VALID,19.8363,VALID,161,VALID,0,
2009-11-06, 01:25:04,VALID,915.396,VALID,0,VALID,96.0398,VALID,0,VALID,19.8378,VALID,161,VALID,0,
2009-11-06, 01:26:04,VALID,915.381,VALID,0,VALID,95.8492,VALID,0,VALID,19.7988,VALID,161,VALID,0,
2009-11-06, 01:27:04,VALID,915.363,VALID,0,VALID,96.116,VALID,0,VALID,19.7973,VALID,161,VALID,0,
2009-11-06, 01:28:04,VALID,915.375,VALID,0,VALID,96.1618,VALID,0,VALID,19.8168,VALID,161,VALID,0,
2009-11-06, 01:29:04,VALID,915.363,VALID,0,VALID,96.1008,VALID,0,VALID,19.7973,VALID,161,VALID,0,
2009-11-06, 01:30:04,VALID,915.345,VALID,0,VALID,96.0855,VALID,0,VALID,19.7973,VALID,161,VALID,0,
2009-11-06, 01:31:04,VALID,915.34,VALID,0,VALID,96.0779,VALID,0,VALID,19.7973,VALID,161,VALID,0,
2009-11-06, 01:32:04,VALID,915.308,VALID,0,VALID,96.0322,VALID,0,VALID,19.7988,VALID,161,VALID,0.0015625,
2009-11-06, 01:33:04,VALID,915.302,VALID,0,VALID,95.8416,VALID,0,VALID,19.7388,VALID,161,VALID,0,
2009-11-06, 01:34:04,VALID,915.317,VALID,0,VALID,95.6739,VALID,0,VALID,19.7208,VALID,161,VALID,0,
2009-11-06, 01:35:04,VALID,915.299,VALID,0,VALID,95.6281,VALID,0,VALID,19.6623,VALID,161,VALID,0.114453,
2009-11-06, 01:36:04,VALID,915.285,VALID,0,VALID,95.6815,VALID,0,VALID,19.6218,VALID,161,VALID,0.135937,
2009-11-06, 01:37:04,VALID,915.252,VALID,0,VALID,95.7272,VALID,0,VALID,19.6233,VALID,161,VALID,0,
2009-11-06, 01:38:04,VALID,915.268,VALID,0,VALID,95.7882,VALID,0,VALID,19.5828,VALID,161,VALID,0,
2009-11-06, 01:39:04,VALID,915.265,VALID,0,VALID,95.8797,VALID,0,VALID,19.6038,VALID,161,VALID,0,
2009-11-06, 01:40:04,VALID,915.243,VALID,0,VALID,95.9483,VALID,0,VALID,19.5828,VALID,161,VALID,0,
2009-11-06, 01:41:04,VALID,915.222,VALID,0,VALID,96.055,VALID,0,VALID,19.6038,VALID,161,VALID,0,
2009-11-06, 01:42:04,VALID,915.221,VALID,0,VALID,96.1313,VALID,0,VALID,19.6038,VALID,161,VALID,0,
2009-11-06, 01:43:04,VALID,915.19,VALID,0,VALID,96.1008,VALID,0,VALID,19.5828,VALID,161,VALID,0,
2009-11-06, 01:44:04,VALID,915.179,VALID,0,VALID,96.177,VALID,0,VALID,19.5828,VALID,161,VALID,0,
2009-11-06, 01:45:04,VALID,915.16,VALID,0,VALID,96.2837,VALID,0,VALID,19.6023,VALID,161,VALID,0,
2009-11-06, 01:46:04,VALID,915.141,VALID,0,VALID,96.3676,VALID,0,VALID,19.6428,VALID,161,VALID,0,
2009-11-06, 01:47:04,VALID,915.116,VALID,0,VALID,96.36,VALID,0,VALID,19.6233,VALID,161,VALID,0,
2009-11-06, 01:48:04,VALID,915.115,VALID,0,VALID,96.3371,VALID,0,VALID,19.6233,VALID,161,VALID,0,
2009-11-06, 01:49:04,VALID,915.103,VALID,0,VALID,96.3447,VALID,0,VALID,19.6233,VALID,161,VALID,0,
2009-11-06, 01:50:04,VALID,915.101,VALID,0,VALID,96.2914,VALID,0,VALID,19.6038,VALID,161,VALID,0,
2009-11-06, 01:51:04,VALID,915.127,VALID,0,VALID,96.3066,VALID,0,VALID,19.5828,VALID,161,VALID,0,
2009-11-06, 01:52:04,VALID,915.113,VALID,0,VALID,96.3676,VALID,0,VALID,19.5843,VALID,161,VALID,0.269141,
2009-11-06, 01:53:04,VALID,915.13,VALID,0,VALID,96.3905,VALID,0,VALID,19.6038,VALID,161,VALID,0.300781,
2009-11-06, 01:54:04,VALID,915.131,VALID,0,VALID,96.3829,VALID,0,VALID,19.5828,VALID,161,VALID,0.516797,
2009-11-06, 01:55:04,VALID,915.111,VALID,0,VALID,96.4057,VALID,0,VALID,19.5633,VALID,161,VALID,0.371875,
2009-11-06, 01:56:04,VALID,915.123,VALID,0,VALID,96.3981,VALID,0.107441,VALID,19.5438,VALID,161,VALID,0.367188,
2009-11-06, 01:57:04,VALID,915.13,VALID,0,VALID,96.4057,VALID,0.107441,VALID,19.5243,VALID,161,VALID,0.138281,
2009-11-06, 01:58:04,VALID,915.132,VALID,0,VALID,96.4743,VALID,0,VALID,19.5243,VALID,161,VALID,0.135937,
2009-11-06, 01:59:04,VALID,915.093,VALID,0,VALID,96.4972,VALID,0.107441,VALID,19.5438,VALID,161,VALID,0.239063,
2009-11-06, 02:00:04,VALID,915.099,VALID,0,VALID,96.5277,VALID,0.107441,VALID,19.5243,VALID,161,VALID,0.195703,
2009-11-06, 02:01:04,VALID,915.103,VALID,0,VALID,96.5201,VALID,0,VALID,19.5438,VALID,161,VALID,0,
2009-11-06, 02:02:04,VALID,915.088,VALID,0,VALID,96.5201,VALID,0,VALID,19.5243,VALID,161,VALID,0,
2009-11-06, 02:03:04,VALID,915.089,VALID,0,VALID,96.5658,VALID,0,VALID,19.5648,VALID,161,VALID,0,
2009-11-06, 02:04:04,VALID,915.082,VALID,0,VALID,96.5963,VALID,0,VALID,19.5843,VALID,161,VALID,0,
2009-11-06, 02:05:04,VALID,915.066,VALID,0,VALID,96.5353,VALID,0,VALID,19.5438,VALID,161,VALID,0.146875,
2009-11-06, 02:06:04,VALID,915.051,VALID,0,VALID,96.238,VALID,0,VALID,19.5258,VALID,161,VALID,0.0929687,
2009-11-06, 02:07:04,VALID,915.061,VALID,0,VALID,96.3524,VALID,0,VALID,19.5063,VALID,161,VALID,0.106641,
2009-11-06, 02:08:04,VALID,915.054,VALID,0,VALID,96.2075,VALID,0,VALID,19.4658,VALID,161,VALID,0,
2009-11-06, 02:09:04,VALID,915.086,VALID,0,VALID,96.0932,VALID,0,VALID,19.4074,VALID,161,VALID,0,
2009-11-06, 02:10:04,VALID,915.07,VALID,0,VALID,96.0474,VALID,0.107441,VALID,19.4088,VALID,161,VALID,0,
2009-11-06, 02:11:04,VALID,915.046,VALID,0,VALID,95.9712,VALID,0.107441,VALID,19.3684,VALID,161,VALID,0,
2009-11-06, 02:12:04,VALID,915.038,VALID,0,VALID,96.0093,VALID,0,VALID,19.3294,VALID,161,VALID,0,
2009-11-06, 02:13:04,VALID,915.037,VALID,0,VALID,96.0245,VALID,0.107441,VALID,19.2904,VALID,161,VALID,0,
2009-11-06, 02:14:04,VALID,915.045,VALID,0,VALID,96.1313,VALID,0,VALID,19.2709,VALID,161,VALID,0,
2009-11-06, 02:15:04,VALID,915.003,VALID,0,VALID,96.1923,VALID,0,VALID,19.2319,VALID,161,VALID,0,
2009-11-06, 02:16:04,VALID,915.004,VALID,0,VALID,96.3219,VALID,0.107441,VALID,19.2109,VALID,161,VALID,0,
2009-11-06, 02:17:04,VALID,915.002,VALID,0,VALID,96.5658,VALID,0,VALID,19.2723,VALID,161,VALID,0.251172,
2009-11-06, 02:18:04,VALID,914.977,VALID,0,VALID,96.6268,VALID,0,VALID,19.2304,VALID,161,VALID,0.211328,
2009-11-06, 02:19:04,VALID,914.987,VALID,0,VALID,96.6192,VALID,0.107441,VALID,19.2514,VALID,161,VALID,0.165625,
2009-11-06, 02:20:04,VALID,915.009,VALID,0,VALID,96.6344,VALID,0,VALID,19.2319,VALID,161,VALID,0.134375,
2009-11-06, 02:21:04,VALID,914.989,VALID,0,VALID,96.6878,VALID,0.107441,VALID,19.2528,VALID,161,VALID,0.176563,
2009-11-06, 02:22:04,VALID,914.966,VALID,0,VALID,96.7488,VALID,0,VALID,19.2514,VALID,161,VALID,0.219531,
2009-11-06, 02:23:04,VALID,914.963,VALID,0,VALID,96.825,VALID,0,VALID,19.2918,VALID,161,VALID,0.283594,
2009-11-06, 02:24:04,VALID,914.949,VALID,0,VALID,96.9012,VALID,0.107441,VALID,19.3099,VALID,161,VALID,0.235547,
2009-11-06, 02:25:04,VALID,914.967,VALID,0,VALID,96.9394,VALID,0,VALID,19.3489,VALID,161,VALID,0.433594,
2009-11-06, 02:26:04,VALID,914.956,VALID,0,VALID,96.9546,VALID,0.107441,VALID,19.3684,VALID,161,VALID,0.473047,
2009-11-06, 02:27:04,VALID,914.95,VALID,0,VALID,96.9927,VALID,0,VALID,19.3879,VALID,161,VALID,0.647266,
2009-11-06, 02:28:04,VALID,914.958,VALID,0,VALID,96.9317,VALID,0.107441,VALID,19.3879,VALID,161,VALID,0.807813,
2009-11-06, 02:29:04,VALID,914.953,VALID,0,VALID,96.9241,VALID,0,VALID,19.3474,VALID,161,VALID,0.765625,
2009-11-06, 02:30:04,VALID,914.94,VALID,0,VALID,96.9394,VALID,0,VALID,19.3684,VALID,161,VALID,0.644141,
2009-11-06, 02:31:04,VALID,914.916,VALID,0,VALID,96.947,VALID,0.107441,VALID,19.3879,VALID,161,VALID,0.669922,
2009-11-06, 02:32:04,VALID,914.902,VALID,0,VALID,96.9241,VALID,0,VALID,19.3684,VALID,161,VALID,0.735156,
2009-11-06, 02:33:04,VALID,914.924,VALID,0,VALID,97.0003,VALID,0,VALID,19.4074,VALID,161,VALID,0.954297,
2009-11-06, 02:34:04,VALID,914.912,VALID,0,VALID,97.0613,VALID,0,VALID,19.4463,VALID,161,VALID,0.939844,
2009-11-06, 02:35:04,VALID,914.925,VALID,0,VALID,97.0308,VALID,0,VALID,19.4463,VALID,161,VALID,0.655078,
2009-11-06, 02:36:04,VALID,914.918,VALID,0,VALID,97.0232,VALID,0,VALID,19.4478,VALID,161,VALID,0.758203,
2009-11-06, 02:37:04,VALID,914.916,VALID,0,VALID,97.0308,VALID,0,VALID,19.4478,VALID,161,VALID,0.914063,
2009-11-06, 02:38:04,VALID,914.935,VALID,0,VALID,97.0232,VALID,0,VALID,19.4074,VALID,161,VALID,0.712891,
2009-11-06, 02:39:04,VALID,914.949,VALID,0,VALID,97.0461,VALID,0.107441,VALID,19.4478,VALID,161,VALID,0.68125,
2009-11-06, 02:40:04,VALID,914.938,VALID,0,VALID,97.0842,VALID,0.107441,VALID,19.4074,VALID,161,VALID,0.540625,
2009-11-06, 02:41:04,VALID,914.961,VALID,0,VALID,97.0918,VALID,0,VALID,19.4283,VALID,161,VALID,0.487891,
2009-11-06, 02:42:04,VALID,914.958,VALID,0,VALID,97.1223,VALID,0,VALID,19.4074,VALID,161,VALID,0.745703,
2009-11-06, 02:43:04,VALID,914.926,VALID,0,VALID,97.1604,VALID,0,VALID,19.4283,VALID,161,VALID,0.630859,
2009-11-06, 02:44:04,VALID,914.939,VALID,0,VALID,97.1833,VALID,0,VALID,19.4268,VALID,161,VALID,0.644531,
2009-11-06, 02:45:04,VALID,914.901,VALID,0,VALID,97.2062,VALID,0,VALID,19.4268,VALID,161,VALID,0.533984,
2009-11-06, 02:46:04,VALID,914.872,VALID,0,VALID,97.2138,VALID,0,VALID,19.4268,VALID,161,VALID,0.433203,
2009-11-06, 02:47:04,VALID,914.863,VALID,0,VALID,97.2214,VALID,0,VALID,19.4463,VALID,161,VALID,0.557031,
2009-11-06, 02:48:04,VALID,914.811,VALID,0,VALID,97.2367,VALID,0,VALID,19.4463,VALID,161,VALID,0.653516,
2009-11-06, 02:49:04,VALID,914.782,VALID,0,VALID,97.2824,VALID,0.107441,VALID,19.5048,VALID,161,VALID,0.734375,
2009-11-06, 02:50:04,VALID,914.747,VALID,0,VALID,97.2748,VALID,0,VALID,19.5258,VALID,161,VALID,0.530859,
2009-11-06, 02:51:04,VALID,914.707,VALID,0,VALID,97.2824,VALID,0,VALID,19.5048,VALID,161,VALID,0.370313,
2009-11-06, 02:52:04,VALID,914.708,VALID,0,VALID,97.2824,VALID,0,VALID,19.5048,VALID,161,VALID,0.387109,
2009-11-06, 02:53:04,VALID,914.652,VALID,0,VALID,97.2824,VALID,0,VALID,19.5048,VALID,161,VALID,0.291406,
2009-11-06, 02:54:04,VALID,914.663,VALID,0,VALID,97.1604,VALID,0,VALID,19.4868,VALID,161,VALID,0.186719,
2009-11-06, 02:55:04,VALID,914.619,VALID,0,VALID,97.1909,VALID,0,VALID,19.4268,VALID,161,VALID,0.426562,
2009-11-06, 02:56:04,VALID,914.597,VALID,0,VALID,97.1833,VALID,0,VALID,19.4283,VALID,161,VALID,0.294141,
2009-11-06, 02:57:04,VALID,914.591,VALID,0,VALID,97.2367,VALID,0,VALID,19.4268,VALID,161,VALID,0.332031,
2009-11-06, 02:58:04,VALID,914.581,VALID,0,VALID,97.2672,VALID,0,VALID,19.4268,VALID,161,VALID,0.296094,
2009-11-06, 02:59:04,VALID,914.578,VALID,0,VALID,97.2595,VALID,0,VALID,19.4478,VALID,161,VALID,0.360547,
2009-11-06, 03:00:04,VALID,914.564,VALID,0,VALID,97.29,VALID,0,VALID,19.4268,VALID,161,VALID,0.475781,
2009-11-06, 03:01:04,VALID,914.543,VALID,0,VALID,97.3129,VALID,0,VALID,19.4658,VALID,161,VALID,0.65625,
2009-11-06, 03:02:04,VALID,914.56,VALID,0,VALID,97.3053,VALID,0,VALID,19.4658,VALID,161,VALID,0.724609,
2009-11-06, 03:03:04,VALID,914.552,VALID,0,VALID,97.29,VALID,0,VALID,19.4463,VALID,161,VALID,0.794141,
2009-11-06, 03:04:04,VALID,914.538,VALID,0,VALID,97.3281,VALID,0,VALID,19.4463,VALID,161,VALID,0.943359,
2009-11-06, 03:05:04,VALID,914.522,VALID,0,VALID,97.3205,VALID,0,VALID,19.4853,VALID,161,VALID,1.25859,
2009-11-06, 03:06:04,VALID,914.532,VALID,0,VALID,97.3586,VALID,0,VALID,19.5063,VALID,161,VALID,1.17148,
2009-11-06, 03:07:04,VALID,914.521,VALID,0,VALID,97.3358,VALID,0,VALID,19.4853,VALID,161,VALID,0.862891,
2009-11-06, 03:08:04,VALID,914.494,VALID,0,VALID,97.3663,VALID,0,VALID,19.4853,VALID,161,VALID,0.867578,
2009-11-06, 03:09:04,VALID,914.473,VALID,0,VALID,97.3358,VALID,0.107441,VALID,19.4853,VALID,161,VALID,0.630859,
2009-11-06, 03:10:04,VALID,914.475,VALID,0,VALID,97.3129,VALID,0,VALID,19.4658,VALID,161,VALID,1,
2009-11-06, 03:11:04,VALID,914.417,VALID,0,VALID,97.3129,VALID,0,VALID,19.4478,VALID,161,VALID,0.580859,
2009-11-06, 03:12:04,VALID,914.409,VALID,0,VALID,97.3281,VALID,0,VALID,19.4478,VALID,161,VALID,0.927344,
2009-11-06, 03:13:04,VALID,914.399,VALID,0,VALID,97.351,VALID,0,VALID,19.4074,VALID,161,VALID,1.1043,
2009-11-06, 03:14:04,VALID,914.347,VALID,0,VALID,97.351,VALID,0,VALID,19.4478,VALID,161,VALID,0.777734,
2009-11-06, 03:15:04,VALID,914.344,VALID,0,VALID,97.351,VALID,0,VALID,19.4074,VALID,161,VALID,0.69375,
2009-11-06, 03:16:04,VALID,914.352,VALID,0,VALID,97.3815,VALID,0.107441,VALID,19.4268,VALID,161,VALID,0.573047,
2009-11-06, 03:17:04,VALID,914.316,VALID,0,VALID,97.4044,VALID,0,VALID,19.4658,VALID,160,VALID,0.9375,
2009-11-06, 03:18:04,VALID,914.297,VALID,0,VALID,97.4196,VALID,0,VALID,19.4463,VALID,160,VALID,0.927734,
2009-11-06, 03:19:04,VALID,914.281,VALID,0,VALID,97.4349,VALID,0,VALID,19.4853,VALID,160,VALID,1.14453,
2009-11-06, 03:20:04,VALID,914.265,VALID,0,VALID,97.412,VALID,0,VALID,19.4853,VALID,160,VALID,0.663672,
2009-11-06, 03:21:04,VALID,914.255,VALID,0,VALID,97.4273,VALID,0,VALID,19.4658,VALID,160,VALID,0.755078,
2009-11-06, 03:22:04,VALID,914.259,VALID,0,VALID,97.4501,VALID,0,VALID,19.5048,VALID,160,VALID,0.892969,
2009-11-06, 03:23:04,VALID,914.265,VALID,0,VALID,97.473,VALID,0,VALID,19.5063,VALID,160,VALID,0.994922,
2009-11-06, 03:24:04,VALID,914.271,VALID,0,VALID,97.4654,VALID,0,VALID,19.5258,VALID,160,VALID,0.678516,
2009-11-06, 03:25:04,VALID,914.256,VALID,0,VALID,97.473,VALID,0.107441,VALID,19.5048,VALID,160,VALID,0.760938,
2009-11-06, 03:26:04,VALID,914.246,VALID,0,VALID,97.4501,VALID,0,VALID,19.5048,VALID,160,VALID,0.822656,
2009-11-06, 03:27:04,VALID,914.244,VALID,0,VALID,97.4501,VALID,0.107441,VALID,19.4853,VALID,160,VALID,0.805469,
2009-11-06, 03:28:04,VALID,914.286,VALID,0,VALID,97.4959,VALID,0.107441,VALID,19.5243,VALID,160,VALID,0.901953,
2009-11-06, 03:29:04,VALID,914.232,VALID,0,VALID,97.4959,VALID,0,VALID,19.5048,VALID,160,VALID,0.748828,
2009-11-06, 03:30:04,VALID,914.286,VALID,0,VALID,97.4959,VALID,0,VALID,19.5243,VALID,160,VALID,0.867969,
2009-11-06, 03:31:04,VALID,914.274,VALID,0,VALID,97.5111,VALID,0.107441,VALID,19.5633,VALID,160,VALID,0.927734,
2009-11-06, 03:32:04,VALID,914.252,VALID,0,VALID,97.5187,VALID,0,VALID,19.5828,VALID,160,VALID,0.78125,
2009-11-06, 03:33:04,VALID,914.242,VALID,0,VALID,97.5187,VALID,0,VALID,19.5828,VALID,160,VALID,0.749219,
2009-11-06, 03:34:04,VALID,914.205,VALID,0,VALID,97.5264,VALID,0,VALID,19.5843,VALID,160,VALID,0.742188,
2009-11-06, 03:35:04,VALID,914.247,VALID,0,VALID,97.5264,VALID,0.107441,VALID,19.6218,VALID,160,VALID,0.766406,
2009-11-06, 03:36:04,VALID,914.221,VALID,0,VALID,97.5187,VALID,0,VALID,19.6023,VALID,160,VALID,0.641406,
2009-11-06, 03:37:04,VALID,914.247,VALID,0,VALID,97.5187,VALID,0,VALID,19.6023,VALID,160,VALID,0.723828,
2009-11-06, 03:38:04,VALID,914.268,VALID,0,VALID,97.534,VALID,0,VALID,19.6428,VALID,160,VALID,0.434375,
2009-11-06, 03:39:04,VALID,914.279,VALID,0,VALID,97.534,VALID,0,VALID,19.6218,VALID,160,VALID,0.640234,
2009-11-06, 03:40:04,VALID,914.293,VALID,0,VALID,97.4425,VALID,0,VALID,19.5828,VALID,160,VALID,0.329688,
2009-11-06, 03:41:04,VALID,914.279,VALID,0,VALID,97.3968,VALID,0,VALID,19.5258,VALID,160,VALID,0.155859,
2009-11-06, 03:42:04,VALID,914.304,VALID,0,VALID,97.5264,VALID,0,VALID,19.5843,VALID,160,VALID,0.371094,
2009-11-06, 03:43:04,VALID,914.285,VALID,0,VALID,97.5187,VALID,0,VALID,19.5828,VALID,160,VALID,0.0476562,
2009-11-06, 03:44:04,VALID,914.288,VALID,0,VALID,97.5492,VALID,0,VALID,19.6023,VALID,160,VALID,0,
2009-11-06, 03:45:04,VALID,914.276,VALID,0,VALID,97.5416,VALID,0,VALID,19.6218,VALID,160,VALID,0.137109,
2009-11-06, 03:46:04,VALID,914.279,VALID,0,VALID,97.5264,VALID,0,VALID,19.6023,VALID,160,VALID,0.333203,
2009-11-06, 03:47:04,VALID,914.275,VALID,0,VALID,97.5187,VALID,0.107441,VALID,19.6023,VALID,160,VALID,0.373437,